Simultaneous Nadir Overpasses (SNOs) Predictions

Prediction of SNOs between GOES-15 and METOP-B Satellite Orbit:

Table of predicted SNOs for the next 14.0 days since TLE Epoch: 4/20/2017
Index Date Time (GOES-15) GOES-15 Lat,Lon METOP-B Lat,Lon Distance(km) Time Diff (sec)
1 04/21/2017 18:16:41 -0.06,-135.49 -0.91,-131.80 422.17 80
2 04/23/2017 06:35:41 0.06,-135.47 -0.11,-136.39 104.27 80
3 04/24/2017 06:17:41 0.06,-135.47 0.95,-131.39 464.79 80
4 04/25/2017 18:36:32 -0.07,-135.49 0.05,-135.95 53.64 80
5 04/28/2017 06:32:13 0.07,-135.44 0.06,-135.56 13.74 80
6 04/30/2017 18:30:25 -0.08,-135.43 -0.17,-135.13 34.61 80
7 05/02/2017 06:49:24 0.09,-135.38 -0.89,-139.72 495.27 80
8 05/03/2017 06:31:25 0.09,-135.36 0.23,-134.73 72.18 80
9 05/04/2017 18:50:16 -0.10,-135.37 0.78,-139.29 447.25 80




NCC Satellite Simultaneous Nadir Overpasses (SNOs) Prediction Service
